This is the latest recevied weather packets stored in our database for station/object KO4ZGL-13. If no packets are shown the sender has not sent any weather packets the latest 10 day(s).
| Time | Temp. | Humidity | Pressure | Rain* | Wind** | Luminosity | Snow |
|---|---|---|---|---|---|---|---|
| 1787753978 | 28.89° C | 87% | 1018.4 hPa | 0 mm | - | 504 W/m² | - |
| 1787753677 | 29.44° C | 87% | 1018.3 hPa | 0 mm | - | 253 W/m² | - |
| 1787753376 | 29.44° C | 88% | 1018.4 hPa | 0 mm | - | 492 W/m² | - |
| 1787753071 | 29.44° C | 88% | 1018.5 hPa | 0 mm | - | 298 W/m² | - |
| 1787752770 | 28.89° C | 87% | 1018.2 hPa | 0 mm | - | 267 W/m² | - |
| 1787752465 | 29.44° C | 87% | 1018.3 hPa | 0 mm | - | 229 W/m² | - |
| 1787752160 | 28.89° C | 89% | 1018.5 hPa | 0 mm | - | 387 W/m² | - |
| 1787751859 | 28.89° C | 90% | 1018.4 hPa | 0 mm | - | 303 W/m² | - |
| 1787751555 | 28.89° C | 93% | 1018.2 hPa | 0 mm | - | 336 W/m² | - |
| 1787751250 | 27.78° C | 96% | 1018 hPa | 0 mm | - | 186 W/m² | - |
| 1787750945 | 26.67° C | 97% | 1018.1 hPa | 0 mm | - | 350 W/m² | - |
| 1787750641 | 26.67° C | 98% | 1018.1 hPa | 0 mm | - | 295 W/m² | - |
| 1787750334 | 26.11° C | 99% | 1018 hPa | 0 mm | - | 341 W/m² | - |
| 1787750029 | 25.56° C | 99% | 1017.9 hPa | 0 mm | - | 640 W/m² | - |
| 1787749726 | 25.56° C | 99% | 1018 hPa | 0 mm | - | 155 W/m² | - |
| 1787749421 | 25.56° C | 99% | 1017.8 hPa | 0 mm | - | 132 W/m² | - |
| 1787749120 | 25.56° C | 99% | 1017.9 hPa | 0 mm | - | 139 W/m² | - |
| 1787748810 | 25° C | 99% | 1018 hPa | 0 mm | - | 120 W/m² | - |
| 1787748510 | 25° C | 99% | 1018 hPa | 0 mm | - | 95 W/m² | - |
| 1787748206 | 25° C | 99% | 1018.1 hPa | 0 mm | - | 123 W/m² | - |
| 1787747906 | 25° C | 99% | 1018.2 hPa | 0 mm | - | 109 W/m² | - |
| 1787747600 | 24.44° C | 99% | 1018.1 hPa | 0 mm | - | 108 W/m² | - |
| 1787747295 | 24.44° C | 99% | 1018.4 hPa | 0 mm | - | 103 W/m² | - |
| 1787746990 | 24.44° C | 99% | 1018.4 hPa | 0 mm | - | 83 W/m² | - |
| 1787746687 | 24.44° C | 99% | 1018.4 hPa | 0 mm | - | 67 W/m² | - |
* Rain latest hour (hover to see other rain measurements)
** Current wind speed in m/s (hover to see current wind gust speed)